2017-008CH

Last updated on Mon Mar 06 2017 00:15:03 GMT+0000 (Coordinated Universal Time)

1 42027U 17008CH 17064.22005754 .00001907 00000-0 86794-4 0 9999 2 42027 97.5091 125.8234 0007221 208.3327 151.7622 15.21922514 2671
UTC large
Height (km)
Speed (km/s)
/
Latitude / Longitude
Inclination (degrees)
Orbital Period (minutes)
Azimuth
Elevation
Range (km)
Doppler Factor

Next 0 passes for location: London (51.5072 / 0.1276)

Sorry there are no passes over London.